Wind_Speed
14 9 18 22 21 21 12 6 3 11 12 14 11 15 15 15 11 12 11 13 12 10 8 7 4 4 4 6 7 8 9 4 4 3 3 6 8 8 9 10 11 12 13 15
14 13 16 18 17 7 12 11 5 3 12 15 2 10 5 13 12 11 8 6 8 9 9 8 6 5 3 3 4 5 6 6 8 9 10 11 13 14 15 15 14 16 16 17
17 16 18 14 9 6 3 11 2 5 7 9 4 6 15 8 12 13 11 9 8 7 6 6 6 6 6 6 7 8 10 11 11 12 13 15 16 18 18 18 18 18 21 22
11 12 15 12 14 6 8 10 7 7 12 10 3 3 10 6 13 12 4 11 10 12 10 9 8 7 8 10 11 11 13 14 16 16 16 17 19 21 21 21 22 24 23 23
10 7 12 1 8 4 8 9 5 8 21 4 16 16 17 20 18 17 15 18 22 28 20 15 12 12 14 15 16 18 19 20 21 22 23 23 24 23 24 25 23 24 26 27
8 10 9 1 0 9 13 13 3 7 14 13 15 16 11 21 14 7 10 14 23 30 27 30 21 18 18 18 18 20 22 22 23 24 24 26 27 27 28 30 31 31 31 28
8 8 4 1 15 4 4 5 10 8 8 9 19 5 19 17 18 9 7 12 21 19 25 29 37 32 13 13 19 22 23 24 25 26 26 27 29 30 30 30 31 34 36 37
5 8 6 3 10 11 2 5 8 14 12 19 8 6 13 18 13 11 1 13 17 18 17 23 35 35 34 28 18 29 26 28 29 30 28 27 28 29 30 32 34 36 39 41
8 11 5 2 4 7 2 6 6 3 8 6 8 8 10 10 8 12 7 8 14 12 10 18 29 31 31 37 32 27 33 30 30 29 30 30 31 32 34 35 35 35 38 40
9 5 1 8 3 3 5 6 7 2 11 2 14 14 7 11 7 16 29 18 18 23 22 23 29 32 23 41 37 28 33 37 35 36 37 37 36 37 37 38 38 39 41 43
6 13 3 3 2 6 12 3 4 6 4 7 8 17 16 7 18 29 30 21 23 23 23 19 18 27 33 40 38 36 33 41 41 40 40 40 41 42 43 45 45 45 46 48
3 12 18 13 11 18 16 7 3 6 5 7 9 8 8 16 16 14 23 21 23 21 23 25 25 26 35 41 41 40 39 42 41 40 41 43 45 47 49 51 52 52 53 53
12 7 3 9 9 11 6 7 8 10 8 7 8 7 26 16 14 22 34 25 29 30 30 26 29 31 38 42 41 41 40 40 40 41 44 47 49 51 54 56 57 57 57 55
6 16 5 5 19 6 12 13 14 11 12 12 12 18 23 28 30 37 26 30 34 36 37 40 34 35 39 40 40 39 39 40 43 44 46 49 52 55 58 61 62 62 61 59
10 9 11 14 16 14 15 15 14 15 17 18 18 18 30 32 32 28 32 36 40 41 39 43 47 41 41 39 42 43 43 44 47 49 48 51 56 59 61 62 63 63 62 61
6 8 17 14 10 11 16 19 19 16 17 13 13 26 34 34 31 34 36 41 45 46 48 44 45 50 46 50 50 47 44 41 51 52 52 55 58 60 61 63 64 62 63 63
7 11 17 12 15 16 12 10 16 19 22 18 16 30 36 34 35 36 41 46 48 45 46 47 41 46 49 53 75 23 29 64 49 62 59 57 58 60 63 64 64 62 61 60
10 16 13 15 16 14 13 18 26 27 22 29 31 32 32 35 38 38 46 46 47 49 44 46 44 42 45 53 55 69 55 59 57 58 59 61 62 62 61 63 61 58 55 46
13 23 22 25 24 22 21 19 27 32 32 33 31 31 35 39 40 42 45 44 45 48 45 48 50 49 52 52 51 56 53 53 53 56 58 58 60 61 56 54 59 54 48 38
15 22 23 19 25 22 22 37 32 32 35 37 35 39 42 44 46 46 47 46 46 48 48 49 50 50 53 52 51 52 52 52 53 55 57 57 56 56 53 53 58 54 38 37
35 18 26 23 26 24 37 35 40 39 42 40 41 44 47 49 49 50 49 49 50 51 53 53 51 52 52 50 49 50 51 51 53 55 54 52 53 55 54 50 47 52 47 47
27 33 37 35 25 28 38 41 41 41 40 42 45 48 50 50 51 51 49 49 50 52 54 54 54 53 50 50 49 49 49 51 52 50 49 51 50 49 50 48 45 44 46 44
38 38 38 34 31 37 42 41 41 42 43 45 48 49 51 52 53 52 51 52 54 55 56 55 55 53 52 51 50 50 48 49 48 48 49 50 50 49 47 49 45 44 42 30
36 39 38 38 36 38 41 43 42 42 44 47 49 50 51 51 53 54 56 56 57 57 57 56 55 53 52 50 50 48 49 49 49 48 48 47 51 48 46 47 45 43 37 32
32 34 37 37 39 40 44 45 46 47 46 48 49 51 50 52 55 58 60 59 60 59 56 55 53 51 50 50 48 46 47 46 45 43 45 49 49 47 46 45 43 38 30 26
35 36 35 39 42 42 45 46 49 50 51 48 51 51 53 56 59 61 61 61 60 59 53 52 50 50 48 46 44 44 44 42 43 45 47 46 45 43 36 31 28 23 20 22
Wind_Direction
156 125 104 102 81 75 14 33 29 358 58 78 30 29 53 32 31 44 48 48 40 47 44 30 19 9 53 61 65 49 52 78 39 30 353 332 330 324 327 324 326 326 323 323
122 113 102 94 98 105 172 149 323 10 80 57 186 84 351 20 23 16 17 39 56 48 39 35 36 31 76 40 23 18 12 360 346 344 340 336 328 325 322 324 318 311 316 314
134 129 112 81 224 127 136 106 25 345 31 72 20 344 345 20 26 4 355 9 19 25 17 15 4 358 340 336 332 334 338 338 332 331 331 329 328 323 322 321 316 315 316 314
162 106 93 71 299 327 83 104 42 348 304 68 149 287 305 360 341 11 13 19 360 356 347 335 327 317 321 324 319 320 324 322 328 330 330 334 330 326 323 319 316 315 314 310
67 66 108 290 280 297 24 89 87 290 281 146 212 229 327 347 328 346 343 358 348 341 338 339 324 315 317 321 322 325 326 326 329 331 329 328 324 320 316 314 313 309 308 308
100 41 83 33 180 142 111 53 360 298 347 53 14 4 322 336 317 177 272 325 336 332 333 333 326 331 327 325 322 321 318 319 319 319 316 315 315 315 313 312 311 309 307 304
158 183 59 348 128 195 341 320 20 11 320 39 356 15 296 319 344 350 21 5 319 327 326 330 325 323 308 300 310 309 310 309 309 311 316 317 316 316 316 314 309 308 306 305
84 131 140 300 163 156 12 24 299 1 3 335 17 265 323 332 345 359 251 244 235 284 318 310 307 307 303 317 321 315 315 309 313 316 316 315 314 310 307 306 306 305 303 302
92 114 311 6 147 160 313 10 230 3 311 258 288 297 293 37 34 277 326 336 329 304 307 280 289 276 287 303 316 321 314 313 314 312 309 307 306 303 301 301 301 301 300 299
243 139 109 12 4 335 224 34 11 350 317 53 326 308 304 290 220 269 318 300 287 284 262 260 266 294 314 300 314 321 311 309 308 309 308 307 307 307 306 304 303 303 302 301
283 171 314 345 97 192 321 292 245 257 256 307 289 296 301 260 288 312 311 295 297 297 304 306 291 289 285 297 304 307 303 301 304 305 304 303 303 303 304 303 303 302 301 300
351 323 40 5 319 300 307 291 295 271 297 258 295 322 295 295 320 300 296 302 298 305 299 299 298 289 284 289 295 297 296 295 297 297 297 298 300 302 303 303 303 304 305 304
200 155 316 234 248 328 67 310 335 334 322 288 274 257 314 281 301 294 296 305 309 308 305 300 295 291 287 294 296 294 293 293 294 294 295 295 297 299 300 300 301 301 301 301
221 186 203 273 306 293 281 302 305 293 274 268 270 276 279 275 278 281 304 306 305 302 303 304 301 298 296 293 294 295 296 295 294 292 294 295 295 296 298 300 301 302 302 301
235 245 240 244 236 262 268 283 298 293 292 279 279 287 273 273 279 290 305 302 302 301 307 307 307 306 300 295 294 295 293 291 293 295 296 296 294 296 298 299 299 299 299 298
275 283 300 300 315 310 275 265 275 293 297 294 277 269 269 278 298 300 299 299 301 306 307 306 302 303 302 303 298 288 284 295 302 301 298 296 297 296 296 296 296 297 299 298
310 244 249 273 262 279 324 330 294 258 256 255 248 255 278 297 294 298 294 295 298 300 299 298 299 300 305 304 308 305 308 313 308 301 300 297 297 298 296 299 299 301 299 298
274 281 301 304 295 296 290 264 281 276 289 273 277 286 289 290 291 294 291 297 299 298 301 299 300 297 300 304 302 304 309 301 298 300 301 301 302 300 300 300 299 298 299 294
282 288 289 286 292 291 305 280 270 277 285 287 288 289 291 291 294 296 299 301 300 299 302 303 303 303 301 300 299 299 299 298 298 297 297 299 300 301 302 304 299 294 293 284
246 273 281 312 312 325 296 286 297 294 294 290 297 299 301 301 300 301 301 301 300 303 304 301 302 301 299 302 301 299 299 298 297 296 298 299 299 301 301 300 296 295 303 310
262 276 281 276 270 269 278 284 290 290 289 296 298 302 301 300 302 301 301 302 304 305 305 305 304 302 303 303 299 299 299 298 296 298 300 301 301 301 302 299 296 298 296 294
274 276 275 281 279 265 271 277 289 290 290 295 299 297 297 300 299 298 299 300 302 302 302 304 303 302 301 300 299 298 298 297 298 301 302 302 302 299 299 298 298 292 297 293
259 268 274 278 271 281 285 285 288 290 294 293 291 295 295 295 295 296 297 301 302 302 303 303 303 302 301 302 301 301 299 300 302 304 304 303 302 301 301 298 297 299 302 298
274 273 279 284 286 283 282 286 288 290 290 290 292 294 294 295 295 297 299 302 302 302 303 303 302 302 302 303 304 303 303 304 304 303 305 305 305 305 303 300 297 294 291 290
276 276 276 282 283 285 288 291 293 292 293 293 296 294 298 296 298 299 300 302 301 301 303 301 301 300 302 302 301 300 301 303 303 304 307 308 307 306 301 300 301 298 285 281
272 277 280 285 284 286 290 293 294 297 298 301 299 301 299 300 300 300 301 301 301 302 301 299 298 300 301 299 298 300 301 303 302 304 308 309 310 309 306 308 306 299 279 280
Height
5927 5932 5929 5929 5932 5938 5943 5946 5946 5944 5941 5939 5940 5935 5936 5935 5934 5934 5933 5933 5933 5933 5933 5933 5933 5933 5933 5933 5933 5932 5932 5932 5932 5932 5931 5930 5929 5928 5927 5927 5926 5925 5923 5922
5928 5933 5933 5931 5936 5940 5937 5939 5945 5944 5941 5942 5942 5940 5940 5936 5936 5936 5936 5935 5934 5934 5934 5935 5935 5934 5934 5934 5934 5934 5933 5933 5932 5931 5930 5929 5928 5927 5926 5925 5924 5922 5921 5919
5933 5934 5931 5935 5938 5945 5943 5940 5945 5945 5945 5944 5941 5939 5939 5938 5937 5937 5937 5936 5936 5935 5935 5935 5935 5935 5934 5934 5934 5933 5932 5932 5931 5930 5929 5928 5926 5924 5923 5922 5921 5920 5918 5916
5937 5933 5933 5942 5938 5945 5944 5943 5947 5949 5944 5945 5946 5942 5938 5936 5936 5939 5936 5938 5938 5937 5936 5934 5934 5934 5933 5933 5932 5932 5931 5930 5928 5927 5926 5925 5923 5922 5920 5919 5917 5914 5913 5913
5935 5935 5938 5947 5946 5944 5945 5942 5948 5946 5943 5939 5938 5941 5941 5943 5939 5935 5933 5934 5933 5934 5933 5932 5931 5931 5929 5929 5928 5928 5927 5926 5925 5924 5922 5921 5920 5919 5917 5915 5914 5912 5909 5906
5939 5941 5941 5944 5944 5943 5945 5946 5947 5945 5944 5942 5944 5939 5939 5943 5940 5938 5936 5936 5934 5931 5930 5929 5928 5927 5926 5925 5925 5925 5925 5923 5922 5921 5920 5917 5915 5914 5912 5909 5906 5904 5902 5901
5934 5937 5943 5945 5943 5945 5945 5946 5950 5949 5945 5945 5946 5942 5941 5944 5942 5941 5940 5939 5933 5933 5932 5927 5924 5920 5922 5924 5923 5921 5921 5919 5918 5917 5915 5912 5909 5906 5904 5902 5900 5897 5893 5890
5935 5939 5941 5943 5943 5942 5944 5948 5949 5947 5951 5951 5946 5944 5942 5939 5938 5936 5941 5943 5942 5938 5936 5930 5925 5919 5915 5915 5919 5916 5917 5914 5912 5910 5908 5907 5904 5902 5900 5897 5893 5890 5887 5883
5936 5936 5942 5941 5942 5944 5947 5948 5947 5949 5953 5951 5946 5939 5938 5937 5938 5938 5938 5939 5938 5937 5936 5935 5930 5910 5907 5910 5913 5913 5911 5909 5906 5905 5903 5901 5899 5896 5893 5889 5885 5882 5879 5876
5937 5938 5942 5941 5942 5944 5945 5946 5949 5950 5950 5950 5944 5945 5941 5940 5939 5936 5936 5935 5934 5933 5931 5929 5921 5912 5893 5907 5908 5909 5906 5901 5900 5898 5895 5892 5890 5887 5883 5879 5877 5873 5870 5866
5935 5935 5942 5941 5944 5945 5945 5944 5946 5948 5948 5950 5949 5942 5940 5938 5936 5934 5932 5930 5928 5926 5924 5924 5924 5920 5915 5908 5904 5902 5901 5894 5891 5889 5886 5883 5880 5877 5874 5869 5866 5863 5860 5855
5939 5938 5939 5943 5942 5940 5941 5940 5943 5945 5946 5946 5946 5948 5939 5936 5933 5931 5927 5926 5923 5923 5920 5918 5916 5915 5908 5902 5898 5895 5892 5887 5883 5880 5877 5873 5870 5866 5862 5857 5853 5849 5845 5842
5932 5940 5945 5945 5942 5941 5942 5941 5941 5942 5942 5944 5945 5948 5932 5933 5929 5925 5922 5921 5918 5916 5913 5912 5909 5906 5899 5893 5889 5885 5881 5876 5873 5870 5866 5862 5859 5855 5850 5846 5842 5838 5834 5830
5933 5935 5939 5943 5936 5941 5941 5940 5939 5939 5939 5939 5940 5938 5934 5926 5924 5921 5920 5916 5912 5909 5905 5900 5899 5895 5890 5884 5879 5874 5870 5866 5862 5859 5856 5851 5847 5842 5837 5832 5826 5821 5817 5812
5929 5930 5932 5933 5934 5935 5934 5935 5936 5937 5935 5933 5932 5931 5920 5918 5917 5916 5914 5909 5903 5898 5897 5892 5884 5883 5877 5873 5864 5856 5852 5849 5848 5847 5846 5840 5833 5828 5824 5819 5813 5807 5802 5797
5926 5929 5929 5928 5930 5931 5930 5928 5928 5929 5929 5929 5929 5917 5911 5910 5911 5909 5905 5899 5893 5890 5886 5882 5877 5869 5866 5859 5852 5854 5833 5839 5834 5833 5831 5826 5821 5816 5811 5804 5797 5793 5788 5783
5927 5926 5923 5924 5924 5924 5925 5927 5923 5922 5920 5919 5917 5909 5906 5906 5903 5901 5894 5890 5886 5883 5877 5872 5869 5862 5859 5848 5814 5806 5803 5819 5821 5818 5816 5813 5809 5803 5796 5790 5783 5778 5772 5768
5924 5921 5921 5920 5920 5921 5923 5920 5914 5912 5914 5909 5907 5905 5903 5899 5896 5893 5884 5881 5876 5869 5867 5861 5857 5855 5853 5842 5824 5816 5822 5819 5815 5809 5803 5797 5793 5787 5780 5775 5768 5761 5756 5752
5919 5916 5916 5914 5914 5914 5913 5911 5908 5906 5906 5900 5899 5897 5894 5890 5887 5882 5876 5872 5865 5858 5856 5850 5845 5841 5836 5835 5833 5825 5818 5809 5804 5798 5791 5786 5779 5771 5766 5761 5753 5740 5741 5738
5913 5912 5909 5908 5908 5909 5906 5899 5900 5900 5898 5891 5890 5886 5882 5878 5874 5870 5865 5860 5855 5849 5846 5840 5835 5829 5821 5818 5814 5807 5801 5796 5790 5783 5778 5773 5766 5759 5753 5748 5739 5732 5703 5721
5900 5899 5901 5904 5903 5904 5896 5895 5889 5890 5888 5884 5881 5877 5872 5867 5864 5858 5853 5848 5843 5838 5831 5826 5822 5815 5810 5806 5800 5794 5788 5783 5776 5770 5765 5759 5752 5745 5739 5735 5730 5718 5714 5707
5895 5894 5895 5895 5895 5894 5887 5884 5884 5881 5878 5876 5872 5866 5861 5857 5852 5847 5843 5838 5833 5827 5821 5815 5808 5803 5799 5793 5788 5781 5776 5769 5763 5758 5752 5746 5739 5733 5726 5721 5719 5712 5708 5697
5892 5891 5887 5887 5887 5881 5876 5875 5874 5872 5870 5867 5860 5855 5850 5846 5840 5836 5831 5827 5821 5814 5808 5802 5795 5790 5785 5779 5773 5768 5762 5756 5751 5745 5739 5732 5726 5720 5714 5707 5705 5701 5695 5693
5883 5879 5879 5877 5877 5871 5868 5866 5865 5864 5860 5855 5850 5845 5840 5834 5828 5824 5818 5814 5807 5801 5794 5788 5782 5776 5771 5766 5760 5755 5749 5743 5737 5732 5727 5720 5713 5707 5701 5695 5691 5688 5686 5684
5873 5871 5869 5869 5865 5864 5859 5857 5855 5851 5848 5843 5838 5833 5829 5822 5817 5811 5805 5799 5792 5786 5781 5775 5769 5764 5760 5754 5749 5743 5737 5732 5726 5721 5716 5709 5701 5694 5688 5683 5677 5675 5676 5677
5862 5862 5862 5858 5855 5855 5851 5846 5841 5839 5834 5831 5825 5821 5815 5809 5803 5796 5791 5783 5777 5772 5767 5761 5756 5752 5747 5742 5737 5732 5726 5721 5716 5710 5705 5698 5691 5683 5676 5673 5670 5667 5667 5668